Location: Tryon
(41.5533°N, 100.9574°W)
Time: 08:33:02
(UTC-05:00)

Hubble Space Telescope - Visible Passes

Search period start: 21 March 2019 00:00
Search period end: 31 March 2019 00:00
Orbit: 537 x 540 km, 28.5° (Epoch: 21 March)

Date Brightness Start Highest point End Pass type
(mag) Time Alt. Az. Time Alt. Az. Time Alt. Az.
25 Mar 3.1 21:28:34 10° S 21:29:10 10° S 21:29:10 10° S visible
26 Mar 3.0 21:17:22 10° SSW 21:18:49 12° S 21:19:27 11° SSE visible
27 Mar 3.0 21:06:27 10° SSW 21:08:12 12° S 21:09:41 11° SSE visible
28 Mar 3.0 20:55:40 10° SSW 20:57:34 13° S 20:59:29 10° SSE visible
29 Mar 3.0 20:44:58 10° SSW 20:46:57 13° S 20:48:56 10° SSE visible
30 Mar 3.1 20:34:22 10° SSW 20:36:20 13° S 20:38:18 10° SSE visible
